"Pseudo-MPEC" for CAXTLJ2

Created 2024 Oct 3 8:22:06 UT using Find_Orb

Click here for an explanation of pseudo-MPECs

 
 Astrometry: 
     CAXTLJ2*1C2024 10 01.37263704 38 34.710+30 25 18.77   ~A19b 20.88GVNEOCPG96
     CAXTLJ2 1C2024 10 01.37783704 38 34.339+30 25 51.20   ~A19b 20.77GVNEOCPG96
     CAXTLJ2 1C2024 10 01.38302804 38 34.055+30 26 22.27   ~A19b 20.94GVNEOCPG96
     CAXTLJ2 1C2024 10 01.38822104 38 33.731+30 26 54.13   ~A19b 21.06GVNEOCPG96
     CAXTLJ2 KC2024 10 01.47980604 38 27.762+30 36 09.86   ~A1C7 21.37GVNEOCPV06
     CAXTLJ2 KC2024 10 01.48293204 38 27.553+30 36 28.66   ~A1C7 21.50GVNEOCPV06
     CAXTLJ2 KC2024 10 01.48605904 38 27.348+30 36 47.56   ~A1C7 21.47GVNEOCPV06
     CAXTLJ2 KC2024 10 01.48918504 38 27.136+30 37 06.49   ~A1C7 21.33GVNEOCPV06
     CAXTLJ2 1C2024 10 02.44843504 37 39.364+32 13 04.01   ~A2BM 21.60GVNEOCPG96
     CAXTLJ2 1C2024 10 02.44908604 37 39.328+32 13 07.39   ~A2BM 21.63GVNEOCPG96
     CAXTLJ2 1C2024 10 02.44973304 37 39.238+32 13 11.82   ~A2BM 22.08GVNEOCPG96

Station data:
(G96) Mt. Lemmon Survey  (N32.442729 W110.788720)  US/Arizona.  Observer E.
   J. Christensen. 1.5-m reflector + 10K CCD.
(V06) Catalina Sky Survey-Kuiper  (N32.416871 W110.732550)  US/Arizona.
   Observers T. A. Pruyne, B. M. Africano, E. J. Christensen, G. A. Farneth,
   D. C. Fuls, A. R. Gibbs, A. D. Grauer, H. Gröller, J. A. Johnson, R. A.
   Kowalski, S. M. Larson, G. J. Leonard, D. Rankin, R. L. Seaman, F. C.
   Shelly, K. W. Wierzchoś. 1.55-m reflector + CCD.

Orbital elements:  CAXTLJ2
   Perihelion 2024 Aug 25.06927 +/- 0.923 TT =  1:39:44 (JD 2460547.56927)
Epoch 2024 Oct  2.0 TT = JDT 2460585.5   Earth MOID: 0.0815   Ma: 0.0632
M  22.19014751 +/- 1.1              (J2000 ecliptic)             AutoNEOCP
n   0.58501762 +/- 0.0172           Peri.  327.47937 +/- 0.7
a   1.41587012 +/- 0.0277           Node    12.94032 +/- 0.12
e   0.2565635 +/- 0.0141            Incl.   18.27756 +/- 0.24
P   1.685/615.354d         H 22.99  G  0.15   U 10.0
q 1.05260939 +/- 0.00105    Q 1.77913085 +/- 0.0548
From 11 observations 2024 Oct. 1-2 (25.9 hr); mean residual 0".20
Residuals in arcseconds: 
241001 G96  .21+  .20-    241001 V06  .02+  .02-    241002 G96  .08+  .16+    
241001 G96  .42-  .44+    241001 V06  .00   .07-    241002 G96  .23+  .36-    
241001 G96  .10+  .20-    241001 V06  .02+  .01-    241002 G96  .31-  .20+    
241001 G96  .12+  .05-    241001 V06  .05-  .10+    

Ephemerides (geocentric):
Date (UTC) HH   RA             Dec           delta  r     elong  mag " sig PA
---- --------  ------------   ------------  ------ ------ -----  --- --------
2024 10 03 08  04 36 48.570   +33 40 32.74  .19356 1.1026 117.2 21.6 1.18 170
2024 10 03 09  04 36 46.060   +33 44 38.31  .19361 1.1027 117.2 21.6 1.27 170
2024 10 03 10  04 36 43.537   +33 48 43.73  .19365 1.1028 117.3 21.6 1.35 170
2024 10 03 11  04 36 41.001   +33 52 49.00  .19370 1.1029 117.3 21.6 1.44 170
2024 10 03 12  04 36 38.453   +33 56 54.12  .19374 1.1030 117.3 21.6 1.53 170
2024 10 03 13  04 36 35.893   +34 00 59.09  .19379 1.1031 117.4 21.6 1.62 170
2024 10 03 14  04 36 33.319   +34 05 03.91  .19383 1.1032 117.4 21.6 1.71 170
2024 10 03 15  04 36 30.733   +34 09 08.58  .19388 1.1033 117.4 21.6 1.81 170
2024 10 03 16  04 36 28.134   +34 13 13.09  .19393 1.1034 117.5 21.6 1.91 170
2024 10 03 17  04 36 25.523   +34 17 17.46  .19397 1.1035 117.5 21.6 2.01 170
2024 10 03 18  04 36 22.898   +34 21 21.67  .19402 1.1036 117.5 21.6 2.12 170
2024 10 03 19  04 36 20.261   +34 25 25.73  .19407 1.1037 117.6 21.6 2.22 170
2024 10 03 20  04 36 17.611   +34 29 29.63  .19411 1.1038 117.6 21.6 2.33 170
2024 10 03 21  04 36 14.949   +34 33 33.37  .19416 1.1039 117.6 21.6 2.44 170
2024 10 03 22  04 36 12.273   +34 37 36.96  .19421 1.1040 117.6 21.6 2.56 170
2024 10 03 23  04 36 09.585   +34 41 40.39  .19426 1.1041 117.7 21.6 2.67 170
2024 10 04 00  04 36 06.883   +34 45 43.67  .19431 1.1042 117.7 21.6 2.79 170
2024 10 04 01  04 36 04.169   +34 49 46.78  .19436 1.1043 117.7 21.6 2.91 170
2024 10 04 02  04 36 01.442   +34 53 49.74  .19441 1.1044 117.8 21.6 3.04 170
2024 10 04 03  04 35 58.702   +34 57 52.54  .19445 1.1045 117.8 21.6 3.16 170
2024 10 04 04  04 35 55.948   +35 01 55.17  .19450 1.1046 117.8 21.6 3.29 170
2024 10 04 05  04 35 53.182   +35 05 57.65  .19455 1.1047 117.9 21.6 3.42 170
2024 10 04 06  04 35 50.403   +35 09 59.96  .19460 1.1048 117.9 21.6 3.55 170
2024 10 04 07  04 35 47.610   +35 14 02.11  .19465 1.1049 117.9 21.6 3.69 170
2024 10 04 08  04 35 44.805   +35 18 04.10  .19471 1.1050 118.0 21.6 3.82 170
2024 10 04 09  04 35 41.986   +35 22 05.92  .19476 1.1051 118.0 21.6 3.96 170
2024 10 04 10  04 35 39.155   +35 26 07.57  .19481 1.1052 118.0 21.6 4.10 170
2024 10 04 11  04 35 36.310   +35 30 09.07  .19486 1.1053 118.1 21.6 4.25 170
2024 10 04 12  04 35 33.452   +35 34 10.39  .19491 1.1054 118.1 21.6 4.39 170
2024 10 04 13  04 35 30.580   +35 38 11.55  .19496 1.1055 118.1 21.6 4.54 170
2024 10 04 14  04 35 27.696   +35 42 12.54  .19501 1.1056 118.1 21.6 4.69 170
2024 10 04 15  04 35 24.798   +35 46 13.36  .19507 1.1057 118.2 21.6 4.85 170
2024 10 04 16  04 35 21.887   +35 50 14.01  .19512 1.1058 118.2 21.6 5.00 170
2024 10 04 17  04 35 18.963   +35 54 14.50  .19517 1.1059 118.2 21.6 5.16 170
2024 10 04 18  04 35 16.025   +35 58 14.81  .19523 1.1061 118.3 21.6 5.32 170
2024 10 04 19  04 35 13.074   +36 02 14.95  .19528 1.1062 118.3 21.6 5.48 170
2024 10 04 20  04 35 10.109   +36 06 14.92  .19533 1.1063 118.3 21.6 5.65 170
2024 10 04 21  04 35 07.131   +36 10 14.72  .19539 1.1064 118.4 21.6 5.82 170
2024 10 04 22  04 35 04.140   +36 14 14.34  .19544 1.1065 118.4 21.6 5.99 170
2024 10 04 23  04 35 01.135   +36 18 13.79  .19550 1.1066 118.4 21.6 6.16 170
2024 10 05 00  04 34 58.117   +36 22 13.07  .19555 1.1067 118.4 21.6 6.33 170
2024 10 05 01  04 34 55.085   +36 26 12.17  .19561 1.1068 118.5 21.6 6.51 170
2024 10 05 02  04 34 52.040   +36 30 11.09  .19566 1.1069 118.5 21.6 6.69 170
2024 10 05 03  04 34 48.981   +36 34 09.84  .19572 1.1070 118.5 21.6 6.87 170
2024 10 05 04  04 34 45.908   +36 38 08.41  .19577 1.1071 118.6 21.6 7.05 170
2024 10 05 05  04 34 42.822   +36 42 06.80  .19583 1.1072 118.6 21.6 7.23 170
2024 10 05 06  04 34 39.723   +36 46 05.01  .19589 1.1073 118.6 21.6 7.42 170
2024 10 05 07  04 34 36.609   +36 50 03.05  .19594 1.1074 118.7 21.6 7.61 170